This is the latest recevied weather packets stored in our database for station/object SP2JGY-2. If no packets are shown the sender has not sent any weather packets the latest 10 day(s).
| Time | Temp. | Humidity | Pressure | Rain* | Wind** | Luminosity | Snow |
|---|---|---|---|---|---|---|---|
| 1777181891 | 5° C | 82% | 1018.4 hPa | - | - | - | - |
| 1777180991 | 4.44° C | 86% | 1018.1 hPa | - | - | - | - |
| 1777180093 | 3.89° C | 87% | 1017.9 hPa | - | - | - | - |
| 1777179191 | 4.44° C | 85% | 1017.4 hPa | - | - | - | - |
| 1777178290 | 3.89° C | 87% | 1017.1 hPa | - | - | - | - |
| 1777177390 | 3.89° C | 87% | 1016.7 hPa | - | - | - | - |
| 1777176490 | 3.33° C | 88% | 1016.4 hPa | - | - | - | - |
| 1777175590 | 3.33° C | 89% | 1016 hPa | - | - | - | - |
| 1777174690 | 2.78° C | 89% | 1015.9 hPa | - | - | - | - |
| 1777173790 | 2.78° C | 90% | 1015.6 hPa | - | - | - | - |
| 1777172889 | 2.78° C | 89% | 1015.3 hPa | - | - | - | - |
| 1777171989 | 2.78° C | 89% | 1015 hPa | - | - | - | - |
| 1777171089 | 2.78° C | 89% | 1014.8 hPa | - | - | - | - |
| 1777170189 | 2.78° C | 89% | 1014.5 hPa | - | - | - | - |
| 1777169289 | 2.78° C | 89% | 1014.2 hPa | - | - | - | - |
| 1777168389 | 2.78° C | 89% | 1013.8 hPa | - | - | - | - |
| 1777167489 | 2.78° C | 88% | 1013.5 hPa | - | - | - | - |
| 1777166588 | 2.78° C | 88% | 1013.2 hPa | - | - | - | - |
| 1777165688 | 3.33° C | 87% | 1012.9 hPa | - | - | - | - |
| 1777164788 | 3.33° C | 87% | 1012.6 hPa | - | - | - | - |
| 1777163888 | 3.33° C | 88% | 1012.3 hPa | - | - | - | - |
| 1777162988 | 3.33° C | 88% | 1011.9 hPa | - | - | - | - |
| 1777162088 | 3.33° C | 89% | 1011.6 hPa | - | - | - | - |
| 1777161187 | 3.33° C | 89% | 1011.3 hPa | - | - | - | - |
| 1777160287 | 3.33° C | 89% | 1010.9 hPa | - | - | - | - |
* Rain since midnight (hover to see other rain measurements)
** Current wind speed in m/s (hover to see current wind gust speed)